Vertical_Velocity
-3 -2 -3 -2 -0 -2 -5 -6 -4 -1 -3 -0 -1 -2 -4 -1 1 1 -4 5 -4 -4 0 1 0 -1 0 0 1 1 -3 -0 3 -3 25 -10 5 -3 -4 10 -1 -1 -1 -2 -2
-2 -2 -2 -2 -3 -2 -3 -1 -3 -6 -3 -2 -2 -1 -2 -1 -2 -3 7 -0 -1 -1 -1 -2 1 -1 -2 -0 3 1 3 6 7 13 14 -7 -1 7 2 3 -2 -1 -0 -1 -0
-1 -2 -3 -2 -1 -3 -1 -2 -2 -2 -4 -6 -2 0 -1 -2 -4 4 -9 1 1 -0 -2 1 0 -0 0 -2 1 7 2 8 -5 -2 -5 4 8 -2 -3 3 0 2 2 -0 -2
-2 -0 -1 -1 1 1 -2 -1 -1 -0 -2 -4 -4 -4 -2 -1 -9 6 -0 -1 0 2 -1 -1 2 -2 0 -1 4 -2 3 -10 -5 -1 7 -3 -9 10 2 -15 -2 0 -1 0 1
-2 -1 0 -1 -2 -1 -2 -1 -2 -1 -3 -3 -3 -3 -2 -1 -3 -0 -2 -2 -2 -2 2 2 -3 2 -1 1 1 -3 5 -6 -7 7 6 -10 3 -8 0 3 6 3 1 2 0
-0 -0 -1 1 -0 -1 1 -1 -2 -2 -2 -2 -2 -4 -3 -7 -4 -1 -0 -1 -1 -1 -1 2 6 -8 -6 -5 -4 5 4 -3 -1 3 -6 9 -2 6 2 1 -0 2 1 0 1
-0 1 -0 -2 -2 -2 -1 -0 1 -2 -2 -1 -2 -4 -2 -5 -2 -3 -1 -2 -0 -0 0 -3 -3 4 12 -1 7 -5 5 5 1 -1 -2 -3 -3 -7 3 2 3 8 -1 2 2
-1 -1 -2 -1 0 -1 -0 -1 -1 0 -1 -1 -1 -4 -3 -3 -0 -2 -2 -1 -0 -1 -1 1 0 3 -7 8 1 7 -2 -5 5 -2 -6 4 12 -4 5 0 2 0 -0 -1 -1
-2 -0 0 -1 -1 -2 0 -1 -0 1 1 -5 0 -5 -4 -2 0 -2 -1 -0 -0 1 -1 4 -3 1 -0 0 6 -6 2 5 7 6 -8 -2 30 -1 -1 7 3 -3 2 -3 -0
-2 0 1 -1 -2 -2 -1 -0 -0 -0 -0 0 1 -4 -0 -4 -4 -3 -2 -1 -2 -0 -2 0 0 -2 -4 -5 -24 19 8 7 -0 -11 -2 1 11 10 3 -0 -1 -1 -2 -1 -3
-3 -3 1 -1 -2 -1 0 1 1 1 -1 -2 1 -1 -2 -4 -2 -1 -1 -1 -1 -3 -0 4 -7 -11 18 -1 19 -1 8 -7 3 -2 0 7 22 14 7 4 1 -0 0 -1 -4
-5 -1 -1 -1 -1 -2 -1 -1 0 -2 7 -2 -3 -1 -3 -2 -3 -3 -3 -1 -4 -1 -4 -3 -5 7 3 -3 2 4 -3 5 18 70 1 11 18 -4 5 2 0 0 2 -1 -2
-4 -4 0 -2 -1 -0 -4 1 -1 -1 -1 -3 -4 1 -5 -0 -1 -3 -3 -4 1 -3 1 -6 12 -7 -3 4 -5 -1 -6 8 1 -22 19 3 4 -9 6 -1 -8 -5 -3 -4 2
-5 -2 -2 -0 -0 -1 -2 -0 -0 -3 -6 -4 -1 -1 -6 -2 1 -6 3 -3 -1 1 -4 -9 6 -2 4 -7 5 -0 19 9 0 -2 -1 8 2 -38 10 2 -4 -5 -1 -0 0
-3 -2 -2 -0 2 -1 -1 -0 0 -3 -7 -8 -1 -5 -0 -2 -1 -9 -2 -6 2 2 -8 14 -3 -5 -9 17 8 -22 3 9 7 -1 8 -2 2 7 -17 -20 -9 0 -8 1 4
0 -3 -2 -0 -1 1 -0 1 -1 -3 -5 -6 -3 -1 -5 -2 1 -3 -6 -3 1 -5 -3 4 -8 0 10 -4 -5 14 5 0 3 1 23 -6 -21 30 -46 29 23 2 -6 4 5
-2 -1 -2 -1 -0 -0 -1 -1 -2 2 1 -22 -5 1 0 -3 -1 -3 1 -1 1 -1 2 6 0 -1 0 -4 0 -1 10 -6 0 2 -44 4 -1 19 5 -4 11 4 1 25 -1
-2 -2 -3 -3 1 -1 -0 -3 2 -5 -5 6 -3 1 1 -2 0 1 -1 3 5 -1 2 5 -7 10 19 -5 14 -4 8 2 -5 -8 -24 40 -45 -41 1 13 14 -13 1 -3 -17
3 -1 -3 -2 -4 -2 -2 -2 -6 2 12 -1 2 -4 5 4 3 -4 4 1 2 6 -5 -3 -5 2 -7 6 4 -1 -7 -11 7 19 23 -16 26 0 9 -3 -9 -4 2 -0 4
-6 -2 1 0 -1 -1 -4 3 -14 8 -0 -1 5 -5 5 9 -12 8 14 -17 -3 -6 -12 5 -17 2 -3 -4 -9 -5 26 12 -6 -8 -12 -16 -4 -35 5 -0 5 -7 -9 3 5
-2 -6 -3 -1 -0 -1 -3 -6 -2 0 1 0 -1 -2 3 3 -3 10 7 -17 -6 6 6 17 -4 13 -5 -10 21 4 -6 -13 8 6 -12 -4 -20 -8 19 -11 3 2 -10 6 11
0 -3 1 0 1 -0 -2 2 7 2 -2 -0 1 3 -5 3 0 4 12 -23 9 0 5 -2 -8 -6 -4 12 -3 3 -12 6 19 -15 -23 -6 -20 18 26 58 20 3 0 -6 1
-2 -1 0 -0 -0 0 -1 -4 -6 2 1 -1 0 1 -2 4 -11 5 15 -9 1 1 -0 -2 -11 -0 2 1 -5 -17 17 11 9 17 -7 12 -57 -2 5 4 42 8 4 -7 -3
-1 0 -1 -0 2 1 2 0 -1 -0 -6 4 0 -3 3 2 2 -7 4 -6 -7 -0 12 0 3 -3 -5 9 20 -4 -2 1 8 13 -23 -21 -3 5 -3 3 5 14 1 -19 4
1 0 -3 -1 0 -2 2 1 -0 -3 3 1 -4 -4 -0 8 -6 5 -9 -9 -1 8 8 -3 -9 8 5 -8 6 -1 8 9 -1 -19 1 -11 -14 16 -4 16 -8 -1 7 1 -9
-5 2 1 -2 -1 -0 -2 -4 -3 -4 1 -2 -0 -3 1 -1 -6 6 -16 -3 0 16 -5 3 -11 6 -11 7 3 -3 0 -4 8 -23 12 -1 -12 18 7 14 37 -6 4 -5 -7
-8 -6 1 4 -2 -1 -3 -6 -4 1 -3 -2 -1 -1 -1 -9 -1 -2 -1 2 -3 -2 1 -3 -3 13 -27 5 17 -5 -51 0 19 12 1 -11 15 7 12 13 -6 -3 -1 1 1
Height
5805 5803 5801 5800 5797 5795 5793 5791 5790 5788 5788 5787 5788 5789 5791 5793 5795 5797 5799 5803 5806 5809 5813 5817 5821 5826 5830 5834 5837 5840 5844 5849 5855 5860 5863 5858 5861 5862 5864 5867 5867 5867 5869 5870 5870
5801 5800 5798 5796 5794 5792 5790 5787 5786 5785 5784 5783 5782 5782 5783 5786 5788 5791 5795 5796 5800 5803 5806 5810 5814 5818 5823 5828 5832 5834 5839 5845 5852 5856 5854 5851 5855 5860 5861 5863 5863 5864 5867 5867 5868
5797 5795 5793 5791 5789 5787 5785 5784 5782 5781 5780 5779 5777 5776 5777 5778 5780 5785 5787 5790 5793 5797 5800 5804 5807 5813 5816 5822 5826 5829 5832 5837 5838 5842 5843 5849 5850 5854 5856 5858 5859 5861 5863 5864 5866
5791 5789 5788 5786 5784 5783 5781 5779 5778 5776 5775 5774 5773 5772 5772 5772 5775 5777 5780 5784 5787 5790 5794 5797 5800 5804 5809 5815 5820 5823 5825 5827 5829 5836 5841 5842 5843 5850 5849 5850 5855 5858 5859 5861 5863
5785 5783 5782 5780 5779 5777 5776 5775 5774 5772 5771 5769 5768 5767 5767 5767 5767 5769 5772 5776 5780 5784 5786 5790 5793 5797 5801 5807 5812 5814 5819 5819 5822 5830 5833 5833 5839 5841 5843 5848 5851 5853 5854 5857 5858
5778 5777 5776 5774 5773 5771 5770 5769 5768 5767 5766 5765 5764 5763 5762 5762 5762 5762 5764 5767 5771 5776 5779 5782 5786 5789 5792 5796 5802 5807 5812 5811 5817 5822 5824 5829 5832 5836 5839 5842 5844 5847 5849 5852 5854
5772 5771 5769 5768 5766 5765 5764 5763 5762 5761 5760 5759 5758 5757 5757 5757 5757 5757 5758 5760 5763 5767 5771 5774 5778 5782 5787 5791 5795 5800 5803 5805 5810 5814 5817 5820 5824 5827 5832 5835 5838 5841 5844 5846 5849
5764 5762 5761 5760 5759 5758 5757 5756 5756 5755 5754 5754 5753 5752 5752 5751 5752 5752 5752 5754 5756 5758 5762 5766 5770 5775 5777 5782 5785 5790 5796 5798 5803 5804 5808 5813 5818 5818 5826 5828 5831 5835 5837 5840 5843
5757 5756 5754 5753 5752 5752 5751 5750 5749 5749 5748 5747 5747 5746 5746 5747 5746 5746 5746 5748 5749 5750 5754 5758 5762 5767 5770 5775 5777 5783 5788 5792 5798 5797 5800 5805 5810 5810 5815 5820 5824 5827 5831 5834 5837
5750 5749 5748 5747 5746 5745 5744 5743 5743 5742 5741 5741 5740 5741 5741 5741 5740 5741 5741 5741 5743 5744 5746 5750 5752 5757 5762 5764 5768 5776 5781 5788 5792 5785 5792 5798 5800 5801 5808 5812 5816 5821 5824 5828 5831
5743 5742 5741 5740 5739 5738 5738 5737 5738 5737 5735 5735 5735 5733 5734 5734 5735 5735 5735 5736 5736 5737 5739 5740 5744 5750 5754 5758 5764 5770 5778 5781 5788 5783 5786 5791 5793 5793 5801 5804 5807 5811 5817 5820 5823
5737 5735 5734 5733 5733 5732 5730 5730 5729 5729 5730 5728 5727 5727 5726 5727 5729 5728 5729 5730 5730 5731 5731 5733 5738 5740 5743 5748 5752 5757 5764 5774 5783 5780 5770 5782 5782 5779 5790 5795 5800 5803 5807 5811 5815
5729 5728 5727 5726 5725 5724 5723 5722 5721 5720 5721 5721 5720 5720 5719 5720 5721 5721 5722 5723 5724 5724 5725 5726 5730 5730 5733 5738 5740 5745 5752 5760 5771 5765 5761 5773 5771 5769 5780 5784 5790 5794 5798 5801 5806
5720 5719 5718 5718 5718 5715 5715 5714 5713 5712 5711 5712 5713 5712 5712 5712 5712 5713 5714 5716 5716 5718 5718 5720 5720 5722 5724 5728 5733 5736 5746 5749 5757 5753 5753 5762 5762 5758 5771 5774 5779 5786 5790 5794 5796
5712 5709 5709 5707 5707 5706 5706 5704 5704 5703 5702 5701 5703 5703 5703 5704 5705 5705 5705 5706 5708 5710 5711 5713 5713 5714 5717 5721 5718 5727 5732 5736 5742 5748 5746 5746 5752 5756 5754 5763 5770 5774 5778 5784 5788
5702 5700 5699 5698 5697 5695 5695 5694 5693 5694 5690 5690 5691 5691 5693 5694 5694 5695 5696 5697 5699 5699 5701 5703 5704 5707 5709 5709 5711 5718 5716 5722 5728 5736 5733 5737 5741 5748 5746 5757 5762 5764 5767 5773 5777
5691 5689 5688 5686 5686 5684 5683 5682 5682 5680 5680 5678 5679 5680 5681 5682 5683 5684 5686 5687 5689 5690 5691 5694 5696 5697 5699 5700 5704 5705 5707 5710 5716 5719 5718 5728 5731 5735 5747 5745 5750 5753 5757 5764 5766
5679 5678 5676 5674 5672 5670 5669 5668 5668 5667 5665 5667 5667 5668 5668 5669 5670 5672 5674 5675 5677 5679 5682 5684 5686 5688 5691 5693 5696 5695 5698 5699 5704 5709 5714 5725 5714 5724 5736 5740 5739 5740 5746 5749 5754
5665 5663 5661 5659 5658 5656 5654 5653 5652 5652 5654 5654 5654 5654 5656 5657 5660 5659 5662 5664 5666 5667 5669 5672 5674 5679 5678 5680 5684 5690 5685 5695 5696 5704 5708 5713 5717 5722 5729 5730 5731 5729 5736 5743 5747
5650 5648 5646 5644 5642 5640 5640 5639 5637 5640 5640 5640 5641 5642 5644 5646 5642 5649 5650 5647 5650 5652 5653 5658 5659 5664 5665 5668 5675 5676 5686 5684 5683 5688 5693 5699 5706 5712 5721 5722 5725 5716 5722 5733 5740
5636 5634 5632 5630 5628 5627 5626 5625 5625 5626 5626 5628 5627 5629 5631 5631 5632 5636 5638 5633 5637 5641 5642 5645 5647 5654 5654 5659 5665 5668 5669 5671 5676 5679 5681 5688 5694 5709 5716 5710 5714 5714 5709 5721 5729
5623 5621 5619 5617 5616 5613 5612 5612 5613 5611 5612 5613 5614 5616 5616 5618 5620 5621 5625 5616 5623 5624 5629 5628 5630 5635 5642 5647 5651 5655 5659 5662 5663 5668 5671 5675 5680 5702 5702 5707 5698 5703 5703 5708 5714
5610 5607 5605 5603 5601 5599 5598 5598 5597 5597 5597 5597 5599 5600 5602 5604 5604 5607 5608 5605 5609 5612 5616 5619 5621 5625 5630 5637 5639 5641 5648 5651 5656 5658 5662 5667 5668 5685 5689 5693 5693 5689 5693 5695 5702
5596 5594 5591 5589 5587 5586 5584 5583 5582 5582 5582 5582 5583 5584 5586 5587 5588 5589 5591 5591 5595 5598 5601 5602 5607 5611 5617 5627 5636 5635 5635 5639 5646 5647 5649 5654 5664 5672 5679 5682 5687 5684 5681 5687 5690
5582 5579 5576 5575 5573 5571 5570 5569 5567 5566 5568 5567 5567 5567 5568 5571 5570 5573 5569 5574 5578 5582 5584 5584 5591 5597 5600 5607 5614 5618 5621 5630 5630 5637 5641 5648 5651 5660 5669 5670 5673 5675 5676 5676 5681
5569 5567 5563 5561 5558 5556 5554 5554 5552 5551 5552 5551 5550 5549 5551 5552 5551 5555 5552 5557 5561 5567 5566 5570 5574 5579 5581 5590 5596 5602 5608 5613 5622 5626 5630 5636 5638 5648 5655 5661 5659 5658 5666 5671 5676
5554 5552 5549 5548 5545 5543 5541 5539 5537 5537 5537 5536 5535 5535 5533 5532 5534 5537 5538 5540 5542 5547 5551 5552 5558 5564 5566 5576 5581 5583 5596 5605 5611 5617 5623 5623 5631 5639 5642 5646 5647 5643 5655 5662 5666